x

9440910 - Toke Point, Wa (tokw1) Weather Station

8:18 - Tue 24th May 2016 All times are PDT. -7 hours from GMT.

  • Wind
    2mph, 5mph gusts
  • Sea Temp 58°f
  • Aire Temp 56°f
  • Sea Pressure 1016.1mb
  • 9440910 - Toke Point, Wa
  • 9440910 - Toke Point, Wa

More Historic Weather Station data

Upgrade to MSW Pro to gain access to the past 30 days of data for over 8000 Wavebouys and Weather Stations around the globe.

Join Pro

Comparision Forecast

View Surf forecast
   
mar 05/24 8:18 2 5 mph 1016.1mb 58f 56f
8:12 1 5 mph 1016mb 58f 56f
8:06 3 6 mph 1016mb 58f 55f
8:00 3 6 mph 1016mb 58f 56f
7:54 5 6 mph 1016mb 58f 55f
7:48 3 7 mph 1015.9mb 58f 55f
7:42 3 6 mph 1015.8mb 58f 55f
7:36 5 6 mph 1015.8mb 58f 55f
7:30 6 7 mph 1015.8mb 58f 55f
7:24 1 3 mph 1015.7mb 58f 55f
7:18 3 5 mph 1015.6mb 58f 55f
7:12 3
mph
1015.6mb 58f 55f
7:06 2 3 mph 1015.5mb 58f 55f
7:00 2 3 mph 1015.4mb 58f 55f
6:54 2 3 mph 1015.4mb 58f 55f
6:48 2 3 mph - 58f 55f
6:42 2 3 mph - 58f 55f
6:36 2
mph
- 58f 55f
6:30 2
mph
1015.4mb 58f 54f
6:24 2
mph
1015.4mb 58f 54f
6:18 2
mph
1015.4mb 58f 53f
6:12 2
mph
1015.4mb 58f 53f
6:06 2 3 mph 1015.4mb 58f 53f
6:00 1 2 mph 1015.4mb 58f 53f
5:54 1 2 mph 1015.4mb 58f 53f
5:48  -  1 mph 1015.3mb 58f 53f
5:42  -  2 mph 1015.3mb 58f 53f
5:36 2 3 mph 1015.3mb 58f 53f
5:30 2 5 mph 1015.3mb 58f 53f
5:24 2
mph
1015.3mb 58f 53f
5:18 2 3 mph 1015.4mb 58f 53f
5:12 2 3 mph 1015.5mb 58f 53f
5:06 2
mph
1015.5mb 58f 53f
5:00 1 2 mph 1015.4mb 58f 53f
4:54 1 2 mph 1015.4mb 58f 53f
4:48  -  2 mph 1015.4mb 58f 53f
4:42 2 3 mph 1015.4mb 58f 53f
4:36 1 2 mph 1015.4mb 58f 53f
4:30 1 2 mph 1015.4mb 58f 53f
4:24  -  2 mph 1015.4mb 58f 53f
4:18 2 3 mph 1015.4mb 58f 53f
4:12  -  2 mph 1015.4mb 58f 53f
4:06 1 2 mph 1015.3mb 58f 52f
4:00 2 3 mph 1015.4mb 58f 52f
3:54  -  1 mph 1015.4mb 58f 52f
3:48  -  mph 1015.3mb 58f 52f
3:42  -  mph 1015.3mb 58f 52f
3:36  -  1 mph 1015.3mb 58f 52f
3:30 2 3 mph 1015.3mb 58f 51f
3:24 2 3 mph 1015.4mb 58f 52f
3:18 3 5 mph 1015.4mb 59f 52f
3:12 5
mph
1015.4mb 58f 51f
3:06 3 5 mph 1015.3mb 58f 51f
3:00 3 5 mph 1015.3mb 58f 51f
2:54 5
mph
1015.2mb 59f 51f
2:48 3 5 mph 1015.2mb 59f 52f
2:42 3 5 mph 1015.2mb 59f 52f
2:36 3 6 mph 1015.2mb 59f 51f
2:30 5 6 mph 1015.2mb 59f 51f
2:24 5 6 mph 1015.2mb 59f 51f
2:18 3 5 mph 1015.2mb 59f 52f
2:12 2 3 mph 1015.1mb 59f 52f
2:06 2 3 mph 1015.1mb 59f 52f
2:00 2 3 mph 1015.1mb 59f 52f
1:54 1 2 mph 1015.2mb 59f 52f
1:48 1 2 mph 1015.2mb 59f 52f
1:42 1 2 mph 1015.2mb 59f 52f
1:36 1 2 mph 1015.2mb 59f 52f
1:30 2
mph
1015.3mb 59f 53f
1:24 1 2 mph 1015.3mb 59f 53f
1:18 2
mph
1015.3mb 59f 53f
1:12 1
mph
1015.3mb 60f 53f
1:06 1
mph
1015.3mb 60f 53f
1:00 1
mph
1015.3mb 60f 53f
12:54 1
mph
1015.3mb 60f 53f
12:48 1 2 mph 1015.4mb 60f 54f
12:42 1 2 mph 1015.4mb 60f 54f
12:36 2 3 mph 1015.4mb 60f 54f
12:30 2 3 mph 1015.4mb 60f 54f
12:24 2 3 mph 1015.4mb 60f 54f
12:18 2 3 mph 1015.4mb 59f 54f
12:12 2 3 mph 1015.4mb 59f 54f
12:06 2 3 mph 1015.4mb 60f 54f
12:00 2 5 mph 1015.3mb 60f 54f
lun 05/23 11:54 3
mph
1015.3mb 60f 54f
11:48 3 5 mph 1015.2mb 60f 54f
11:42 2 5 mph 1015.2mb 60f 55f
11:36 3
mph
1015.2mb 60f 54f
11:30 3 5 mph 1015.1mb 60f 54f
11:24 2 3 mph 1015.1mb 60f 54f
11:18 2 5 mph 1015.1mb 60f 54f
11:12 3 5 mph 1015.1mb 60f 54f
11:06 3 5 mph 1015.1mb 60f 54f
11:00 3 5 mph 1015.1mb 60f 54f
10:54 5 6 mph 1015mb 60f 54f
10:48  -  mph 1015mb 61f 54f
10:42  -  mph 1015mb 61f 55f
10:36  -  mph 1015mb 61f 55f
10:30 3 5 mph 1015mb 61f 54f
10:24 3 5 mph 1015mb 61f 55f
10:18 3 5 mph 1014.9mb 61f 55f
10:12 3 5 mph 1014.9mb 61f 55f
10:06 3 5 mph 1014.9mb 61f 55f
10:00 3 6 mph 1014.8mb 62f 55f
9:54 5 6 mph 1014.8mb 62f 55f
9:48 5 6 mph 1014.8mb 61f 56f
9:42 5 7 mph 1014.7mb 62f 56f
9:36 6 8 mph 1014.6mb 62f 56f
9:30 6 7 mph 1014.6mb 62f 56f
9:24 3 5 mph 1014.5mb 62f 56f
9:18 3 5 mph 1014.5mb 61f 56f
9:12 5 6 mph 1014.4mb 61f 56f
9:06 6 8 mph 1014.4mb 61f 57f
9:00 7 8 mph 1014.4mb 61f 57f
8:54 7 9 mph 1014.3mb 61f 58f
8:48 6 7 mph 1014.4mb 62f 58f
8:42 7 8 mph 1014.3mb 62f 58f
8:36 8 9 mph 1014.3mb 62f 58f
8:30 8 9 mph 1014.3mb 62f 58f
8:24 9 10 mph 1014.2mb 61f 58f
8:18  -  mph 1014.2mb 61f 59f
8:12  -  mph 1014.2mb 61f 59f
8:06  -  mph 1014.2mb 62f 59f
8:00  -  mph 1014.1mb 62f -
7:54  -  mph 1014mb 62f -
7:48  -  mph 1014mb 62f -
7:42  -  mph 1014mb 62f -
7:36  -  mph 1014mb 62f -
7:30 7 8 mph 1013.9mb 62f 60f
7:24 6 9 mph 1013.9mb 62f 60f
7:18 7 9 mph 1013.9mb 61f -
7:12 6 7 mph 1013.9mb 61f -
7:06 5 8 mph 1013.9mb 61f -
7:00 7 8 mph 1013.9mb 61f 60f
6:54 6 8 mph 1013.9mb 61f 60f
6:48 7 9 mph - 61f -
6:42 8 10 mph - 61f -
6:36 8 11 mph - 61f -
6:30  -  mph - 61f -
6:24  -  mph - 60f -
6:18  -  mph - 60f -
6:12  -  mph - 60f -
6:06  -  mph - 60f -
6:00  -  mph - 60f 59f
5:54  -  mph - 60f 59f
5:48 7 9 mph 1014mb - -
5:42 8 10 mph 1014mb - -
5:36 8 11 mph 1014.1mb - -
5:30  -  mph 1014.2mb 59f -
5:24  -  mph 1014.2mb 59f -
5:18 9 13 mph - 59f -
5:12 9 11 mph - 59f -
5:06 10 13 mph - 59f -
5:00 11 13 mph 1014.2mb 59f 58f
4:54 9 13 mph 1014.3mb 59f 58f
4:48  -  mph 1014.3mb - -
4:42  -  mph 1014.3mb - -
4:36  -  mph 1014.3mb - -
4:30  -  mph - 58f -
4:24  -  mph - 58f -
4:18  -  mph 1014.3mb 58f -
4:12  -  mph 1014.2mb 58f -
4:06  -  mph 1014.3mb 58f -
4:00  -  mph 1014.3mb 59f 57f
3:54  -  mph 1014.3mb 59f 57f
3:48  -  mph - 59f -
3:42  -  mph - 59f -
3:36  -  mph - 59f -
3:30 11 14 mph 1014.4mb 59f 57f
3:24 11 14 mph 1014.4mb 60f 57f
3:18  -  mph 1014.4mb 60f -
3:12  -  mph 1014.4mb 60f -
3:06  -  mph 1014.3mb 59f -
3:00  -  mph 1014.4mb 59f 58f
2:54  -  mph 1014.3mb 59f 58f
2:48  -  mph 1014.3mb - -
2:42  -  mph 1014.3mb - -
2:36  -  mph 1014.3mb - -
2:30 11 16 mph 1014.3mb 58f 57f
2:24 13 16 mph 1014.2mb 58f 57f
2:18 11 17 mph 1014.2mb 58f 58f
2:12 11 15 mph 1014.2mb 58f 58f
2:06 13 16 mph 1014.1mb 58f 57f
2:00 11 15 mph 1014.1mb 58f 58f
1:54 11 14 mph 1014mb 58f 58f
1:48 11 15 mph 1014mb 58f 58f
1:42 9 14 mph 1014mb 58f 58f
1:36 10 15 mph 1014mb 57f 58f
1:30 13 15 mph 1014mb 57f 58f
1:24 10 14 mph 1014mb 57f 58f
1:18 11 15 mph 1014mb 57f 58f
1:12 11 14 mph 1014mb 57f 58f
1:06 11 14 mph 1013.9mb 57f 58f
1:00 10 14 mph 1013.9mb 57f 59f
12:54 11 15 mph 1013.9mb 57f 58f
12:48 13 14 mph 1013.9mb 57f 58f
12:42 10 11 mph 1013.9mb 57f 59f
12:36 10 14 mph 1013.8mb 57f 58f
12:30 11 14 mph 1013.8mb 57f 58f
12:24 9 11 mph 1013.9mb 58f 59f
12:18 8 9 mph 1013.8mb 58f 59f
12:12 7 9 mph 1013.8mb 58f 59f
12:06 6 8 mph 1013.9mb 58f 60f
12:00 7 9 mph 1013.9mb 58f 59f
11:54 6 9 mph 1013.9mb 58f 59f
11:48 7 9 mph 1013.8mb 58f 59f
11:42 7 8 mph 1013.8mb 58f 58f
11:36 6 9 mph 1013.9mb 58f 59f
11:30 7 9 mph 1013.9mb 58f 58f
11:24 6 8 mph 1013.9mb 58f 58f
11:18 7 9 mph 1013.9mb 58f 58f
11:12 7 10 mph 1013.9mb 58f 58f
11:06 7 9 mph 1013.9mb 59f 58f
11:00 7 9 mph 1014mb 59f -
10:54 7 9 mph 1014mb 59f -
10:48  -  mph - - 58f
10:42  -  mph - - 58f
10:36  -  mph - - 58f
10:30 8 11 mph 1014mb 58f 58f
10:24 7 9 mph 1014.1mb 58f 59f
10:18 6 8 mph 1014.1mb 58f -
10:12 7 9 mph 1014.1mb 58f 58f
10:06 8 10 mph 1014.2mb 58f 58f
10:00 7 9 mph 1014.2mb 58f 58f
9:54 8 10 mph 1014.2mb 58f 58f
9:48 9 11 mph 1014.2mb 58f 57f
9:42 7 9 mph 1014.2mb 58f 57f
9:36 6 9 mph 1014.1mb 59f 57f
9:30 6 9 mph 1014.1mb 59f 57f
9:24 7 9 mph 1014.1mb 58f 56f
9:18 7 9 mph 1014.1mb 59f 56f
9:12 7 11 mph 1014.1mb 58f 56f
9:06 9 11 mph 1014.1mb 58f 56f
9:00 7 11 mph 1014.1mb 58f 56f
8:54 8 10 mph 1014mb 57f 55f
8:48 8 10 mph 1014.1mb 57f 55f
8:42 7 10 mph 1014.1mb 56f 55f
8:36 8 10 mph 1014.1mb 57f 55f
8:30 8 11 mph 1014.1mb 56f 55f
8:24 9 11 mph 1014mb 56f 55f
8:18 9 11 mph 1014mb 56f 54f
8:12 9 13 mph 1014mb 57f 54f
8:06 11 13 mph 1014mb 57f 54f
8:00 9 13 mph 1014mb 57f 54f
7:54 13 15 mph 1014mb 57f 54f
7:48 13 16 mph 1014mb 57f 54f
7:42 13 15 mph 1014mb 57f 54f
7:36 14 17 mph 1014mb 57f 54f
7:30 9 10 mph 1013.9mb 57f 55f
7:24 9 10 mph 1013.9mb 57f 55f
7:18 10 11 mph 1013.9mb 57f 55f
7:12 9 11 mph 1013.8mb 57f 55f
7:06 10 14 mph 1013.8mb 57f 55f
7:00 10 13 mph 1013.8mb 57f 54f
6:54 11 14 mph 1013.7mb 57f 54f
6:48 10 13 mph 1013.7mb 57f 55f
6:42 8 11 mph 1013.7mb 57f 55f
6:36 9 11 mph 1013.6mb 57f 55f
6:30 9 11 mph 1013.6mb 57f 55f
6:24 9 10 mph 1013.5mb 57f 55f
6:18 8 10 mph 1013.5mb 57f 55f
6:12 8 9 mph 1013.6mb 57f 55f
6:06 7 9 mph 1013.6mb 57f 55f
6:00 7 10 mph 1013.6mb 57f 55f
5:54 9 10 mph 1013.6mb 57f 55f
5:48 9 10 mph 1013.6mb 57f 55f
5:42 8 9 mph 1013.6mb 57f 55f
5:36 6 9 mph 1013.6mb 57f 55f
5:30 6 8 mph 1013.6mb 57f 54f
5:24 6 8 mph 1013.7mb 57f 54f
5:18 6 8 mph 1013.7mb 57f 54f
5:12 6 8 mph 1013.7mb 57f 54f
5:06 6 7 mph 1013.8mb 57f 54f
5:00 7
mph
1013.7mb 57f 54f
4:54 7
mph
1013.7mb 57f 54f
4:48 6 8 mph 1013.7mb 57f 54f
4:42 7 8 mph 1013.8mb 57f 54f
4:36 6 7 mph 1013.8mb 57f 54f
4:30  -  mph 1013.8mb 57f 54f
4:24  -  mph 1013.8mb 57f 54f
4:18 6 8 mph 1013.9mb 57f 54f
4:12 6 7 mph 1013.9mb 57f 54f
4:06 7 8 mph 1013.9mb 57f 54f
4:00 7 8 mph 1013.9mb 57f 54f
3:54 7 9 mph 1013.9mb 57f 54f
3:48 7 9 mph 1013.9mb 57f 54f
3:42 8 10 mph 1013.8mb 57f 54f
3:36 9 11 mph 1013.9mb 57f 54f
3:30 9 10 mph 1013.9mb 57f 54f
3:24 9 11 mph 1013.8mb 57f 54f
3:18 9 11 mph 1013.8mb 57f 54f
3:12 9 13 mph 1013.9mb 57f 54f
3:06 11 13 mph 1013.8mb 57f 54f
3:00 10 13 mph 1013.8mb 57f 54f
2:54 11 13 mph 1013.8mb 57f 54f
2:48 11 13 mph 1013.8mb 57f 54f
2:42 10 11 mph 1013.8mb 57f 54f
2:36 9 11 mph 1013.8mb 57f 55f
2:30 10 13 mph 1013.8mb 57f 54f
2:24 10 11 mph 1013.8mb 57f 55f
2:18 10 11 mph 1013.8mb 57f 55f
2:12 9 11 mph 1013.9mb 57f 55f
2:06 9 11 mph 1013.9mb 57f 55f
2:00 10 11 mph 1013.9mb 57f 55f
1:54 8 10 mph 1013.9mb 57f 55f
1:48 7 9 mph 1013.9mb 57f 55f
1:42 8 9 mph 1013.9mb 57f 55f
1:36 8 9 mph 1014mb 57f 55f
1:30 7 8 mph 1014mb 57f 55f
1:24 7 8 mph 1014mb 57f 55f
1:18 7 8 mph 1014mb 57f 55f
1:12 7 8 mph 1014.1mb 58f 55f
1:06 7 9 mph 1014.1mb 58f 55f
1:00 8
mph
1014.2mb 58f 55f
12:54 8 9 mph 1014.2mb 58f 55f
12:48 8 9 mph 1014.2mb 58f 55f
12:42 7 9 mph 1014.3mb 58f 56f
12:36 7 9 mph 1014.3mb 58f 55f
12:30 9 13 mph 1014.3mb 58f 56f
12:24 6 8 mph 1014.4mb 58f 56f
12:18 6 9 mph 1014.4mb 58f 56f
12:12 6 8 mph 1014.4mb 58f 56f
12:06 6 8 mph 1014.3mb 58f 56f
12:00 6 8 mph 1014.4mb 58f 56f
dom 05/22 11:54 5 8 mph 1014.3mb 58f 56f
11:48 6 9 mph 1014.4mb 58f 55f
11:42 6 9 mph 1014.4mb 58f 55f
11:36 7 9 mph 1014.4mb 58f 55f
11:30 7 10 mph 1014.4mb 58f 55f
11:24 6 8 mph 1014.4mb 58f 55f
11:18 6 8 mph 1014.4mb 58f 55f
11:12 5 8 mph 1014.5mb 58f 55f
11:06 6 7 mph 1014.5mb 58f 55f
11:00 5 7 mph 1014.5mb 58f 55f
10:54 6 7 mph 1014.6mb 58f 55f
10:48  -  mph 1014.5mb 58f 55f
10:42  -  mph 1014.5mb 58f 55f
10:36  -  mph 1014.5mb 58f 55f
10:30 6 9 mph 1014.5mb 58f 55f
10:24 6 9 mph 1014.6mb 58f 55f
10:18 7 11 mph 1014.6mb 58f 55f
10:12 7 10 mph 1014.6mb 58f 55f
10:06 9 13 mph 1014.6mb 58f 55f
10:00 10 14 mph 1014.6mb 58f 55f
9:54 10 16 mph 1014.5mb 58f 55f
9:48 9 13 mph 1014.5mb 58f 55f
9:42 9 13 mph 1014.5mb 58f 55f
9:36 8 11 mph 1014.5mb 58f 55f
9:30 8 10 mph 1014.5mb 58f 55f
9:24 8 11 mph 1014.5mb 58f 55f
9:18 7 10 mph 1014.6mb 58f 55f
9:12 6 8 mph 1014.5mb 59f 55f
9:06 6 8 mph 1014.5mb 59f 54f
9:00 7 9 mph 1014.5mb 59f 54f
8:54 7 10 mph 1014.5mb 59f 54f
8:48 5 10 mph 1014.5mb 59f 54f
8:42 9 11 mph 1014.6mb 59f 53f
8:36 7 11 mph 1014.7mb 59f 53f
8:30 11 16 mph 1014.7mb 59f 54f
8:24 10 14 mph 1014.7mb 60f 55f
8:18  -  mph 1014.7mb 60f 55f
8:12  -  mph 1014.6mb 59f 55f
8:06  -  mph 1014.6mb 59f 56f
8:00  -  mph 1014.6mb 60f -
7:54  -  mph 1014.6mb 59f -
7:48 8 11 mph 1014.6mb 59f -
7:42 8 11 mph 1014.7mb 60f -
7:36 8 14 mph 1014.7mb 59f -
7:30 9 13 mph 1014.7mb 59f -
7:24 8 11 mph 1014.7mb 59f -
7:18  -  mph 1014.7mb 59f -
7:12  -  mph 1014.6mb 59f -
7:06  -  mph 1014.6mb 59f -
7:00 7 11 mph 1014.6mb 59f 56f
6:54 8 11 mph 1014.6mb 59f 56f
6:48 6 10 mph 1014.6mb - -
6:42 8 10 mph 1014.6mb - -
6:36 6 11 mph 1014.6mb - -
6:30 8 11 mph 1014.6mb 58f 56f
6:24 8 9 mph 1014.6mb 58f 56f
6:18  -  mph 1014.6mb 58f 56f
6:12  -  mph 1014.6mb 59f 56f
6:06  -  mph 1014.6mb 58f 56f
6:00 8 11 mph 1014.6mb 58f 56f
5:54 8 13 mph 1014.6mb 58f 56f
5:48 8 11 mph 1014.6mb 58f -
5:42 10 13 mph 1014.6mb 58f -
5:36 9 11 mph 1014.6mb 58f -
5:30  -  mph 1014.6mb 58f -
5:24  -  mph 1014.6mb 58f -
5:18 10 14 mph - 58f -
5:12 9 14 mph - 58f -
5:06 11 14 mph - 58f -
5:00  -  mph 1014.5mb 58f -
4:54  -  mph 1014.5mb 58f -
4:48  -  mph 1014.4mb 57f -
4:42  -  mph 1014.4mb 57f -
4:36  -  mph 1014.4mb 57f -
4:30  -  mph 1014.4mb 57f -
4:24  -  mph 1014.5mb 57f -
4:18  -  mph 1014.5mb 57f 57f
4:12  -  mph 1014.4mb 57f 57f
4:06  -  mph 1014.4mb 57f 57f
4:00  -  mph - 57f -
3:54  -  mph - 57f -
3:48 9 13 mph - 57f -
3:42 8 11 mph - 57f -
3:36 9 15 mph - 57f -
3:30  -  mph - 57f -
3:24  -  mph - 57f -
3:18 13 16 mph - 57f -
3:12 10 15 mph - 57f -
3:06 11 15 mph - 58f -
3:00  -  mph 1014.6mb 57f -
2:54  -  mph 1014.6mb 57f -
2:48  -  mph 1014.5mb 58f 56f
2:42  -  mph 1014.5mb 57f 56f
2:36  -  mph 1014.5mb 57f 56f
2:30 14 17 mph 1014.5mb 57f 57f
2:24 14 18 mph 1014.5mb 57f 57f
2:18 14 17 mph 1014.5mb 56f 57f
2:12 11 13 mph 1014.4mb 56f 58f
2:06 9 14 mph 1014.4mb 57f 58f
2:00 10 15 mph 1014.5mb 57f 58f
1:54 10 13 mph 1014.5mb 56f 58f
1:48 8 13 mph 1014.5mb 56f 58f
1:42 9 14 mph 1014.5mb 56f 57f
1:36 8 13 mph 1014.4mb 56f 57f
1:30 7 9 mph 1014.4mb 56f 57f
1:24 8 10 mph 1014.3mb 56f 57f
1:18 9 11 mph 1014.3mb 57f 57f
1:12 9 13 mph 1014.3mb 56f 56f
1:06 8 13 mph 1014.3mb 56f 57f
1:00 10 14 mph 1014.3mb 56f 57f
12:54 9 13 mph 1014.3mb 56f 57f
12:48 9 14 mph 1014.3mb 56f 57f
12:42 11 15 mph 1014.4mb 56f 56f
12:36 11 14 mph 1014.4mb 56f 56f
12:30 8 11 mph 1014.4mb 56f 56f
12:24 9 15 mph 1014.4mb 56f 56f
12:18 10 15 mph 1014.4mb 56f 56f
12:12 13 16 mph 1014.4mb 56f 55f
12:06 11 15 mph 1014.4mb 56f 55f
12:00 9 15 mph 1014.4mb 56f 56f
11:54 13 16 mph 1014.4mb 56f 57f
11:48 13 15 mph 1014.4mb 56f 57f
11:42 11 16 mph 1014.4mb 56f 57f
11:36 10 14 mph 1014.4mb 57f 57f
11:30 7 11 mph 1014.4mb 56f 58f
11:24 8 11 mph 1014.3mb 57f 58f
11:18 9 13 mph 1014.3mb 57f 58f
11:12 9 13 mph 1014.3mb 57f 58f
11:06 8 11 mph 1014.3mb 57f 58f
11:00 8 11 mph 1014.4mb 57f 58f
10:54 8 11 mph 1014.4mb 57f 58f
10:48 8 11 mph 1014.5mb 57f 57f
10:42 7 11 mph 1014.4mb 57f 57f
10:36 9 10 mph 1014.5mb 57f 57f
10:30 8 11 mph 1014.5mb 57f 57f
10:24 8 11 mph 1014.5mb 57f 57f
10:18 7 11 mph 1014.5mb 57f 57f
10:12 9 11 mph 1014.5mb 57f 57f
10:06 7 11 mph 1014.4mb 57f 57f
10:00 9 10 mph 1014.4mb 57f 56f
9:54 8 10 mph 1014.4mb 57f 56f
9:48 9 13 mph 1014.3mb 57f 56f
9:42 8 11 mph 1014.3mb 57f 56f
9:36 8 11 mph 1014.4mb 57f 56f
9:30 7 9 mph 1014.3mb 57f 56f
9:24 9 10 mph 1014.3mb 57f 56f
9:18 7 9 mph 1014.3mb 57f 56f
9:12 7 11 mph 1014.2mb 57f 55f
9:06 9 10 mph 1014.2mb 57f 55f
9:00 9 11 mph 1014.2mb 57f 55f
8:54 8 10 mph 1014.2mb 57f 55f
8:48 10 11 mph 1014.2mb 57f 55f
8:42 9 11 mph 1014.2mb 57f 54f
8:36 9 11 mph 1014.2mb 57f 54f
8:30 8 11 mph 1014.2mb 57f 54f
8:24 10 11 mph 1014.2mb 57f 54f
8:18 10 11 mph 1014.1mb 57f 54f
8:12 10 13 mph 1014.1mb 57f 54f
8:06 8 9 mph 1014.1mb 57f 54f
8:00 8 9 mph 1014.1mb 57f 54f
7:54 9 10 mph 1014.1mb 56f 54f
7:48 7 9 mph 1014mb 57f 54f
7:42 8 10 mph 1014mb 56f 53f
7:36 9 10 mph 1014mb 56f 53f
7:30 7 9 mph 1014mb 56f 53f
7:24 7 9 mph 1014mb 56f 53f
7:18 7 9 mph 1014mb 56f 53f
7:12 7 10 mph 1014mb 56f 53f
7:06 9 10 mph 1014mb 56f 53f
7:00 8 9 mph 1014mb 56f 53f
6:54 8 9 mph 1014mb 56f 53f
6:48 8 10 mph 1014mb 56f 53f
6:42 8 9 mph 1013.9mb 56f 53f
6:36 8 9 mph 1014mb 56f 53f
6:30 8 9 mph 1013.9mb 56f 53f
6:24 8 9 mph 1013.9mb 56f 53f
6:18 7 9 mph 1013.8mb 56f 53f
6:12 7 9 mph 1013.8mb 56f 53f
6:06 7 8 mph 1013.7mb 56f 53f
6:00 7 8 mph 1013.7mb 56f 53f
5:54 7 8 mph 1013.7mb 56f 53f
5:48 7 8 mph 1013.6mb 56f 53f
5:42 7 8 mph 1013.6mb 56f 53f
5:36 7 8 mph 1013.6mb 56f 53f
5:30 7 8 mph 1013.6mb 56f 53f
5:24 6 8 mph 1013.6mb 56f 53f
5:18 7 8 mph 1013.5mb 56f 53f
5:12 7 8 mph 1013.5mb 56f 53f
5:06 7 8 mph 1013.5mb 56f 53f
5:00 7 8 mph 1013.5mb 56f 53f
4:54 6 7 mph 1013.4mb 56f 53f
4:48 6 7 mph 1013.4mb 56f 53f
4:42 7 8 mph 1013.4mb 56f 54f
4:36 6 7 mph 1013.4mb 56f 54f
4:30 6 7 mph 1013.3mb 56f 54f
4:24 6 7 mph 1013.3mb 56f 54f
4:18 6 7 mph 1013.3mb 56f 54f
4:12 5 6 mph 1013.4mb 56f 54f
4:06 5 6 mph 1013.5mb 56f 54f
4:00 3 6 mph 1013.5mb 56f 54f
3:54 3 6 mph 1013.5mb 56f 54f
3:48 5 6 mph 1013.5mb 56f 54f
3:42 5 6 mph 1013.5mb 55f 54f
3:36 3 6 mph 1013.6mb 55f 54f
3:30 5 6 mph 1013.6mb 56f 54f
3:24 5 6 mph 1013.6mb 56f 54f
3:18 3 6 mph 1013.6mb 56f 54f
3:12 5 7 mph 1013.7mb 55f 54f
3:06 6
mph
1013.6mb 56f 54f
3:00 3 5 mph 1013.6mb 56f 54f
2:54 3 5 mph 1013.6mb 56f 54f
2:48 3 5 mph 1013.6mb 56f 54f
2:42 5 6 mph 1013.7mb 56f 54f
2:36 3 6 mph 1013.6mb 56f 54f
2:30 5 7 mph 1013.6mb 56f 54f
2:24 5 6 mph 1013.7mb 56f 54f
2:18 3 6 mph 1013.7mb 56f 54f
2:12 5 6 mph 1013.7mb 56f 54f
2:06 3 6 mph 1013.7mb 56f 54f
2:00 5 6 mph 1013.7mb 56f 54f
1:54 5 7 mph 1013.7mb 56f 54f
1:48 6 8 mph 1013.7mb 55f 54f
1:42 6 7 mph 1013.8mb 55f 54f
1:36 6 8 mph 1013.8mb 55f 54f
1:30 6 8 mph 1013.8mb 55f 54f
1:24 7 8 mph 1013.8mb 55f 54f
1:18 6 7 mph 1013.8mb 55f 54f
1:12 6
mph
1013.8mb 55f 54f
1:06 5 6 mph 1013.9mb 55f 54f
1:00 5 6 mph 1013.9mb 55f 54f
12:54 5 7 mph 1014mb 55f 54f
12:48 6 8 mph 1014mb 55f 54f
12:42 6 8 mph 1014mb 56f 54f
12:36 6 8 mph 1014mb 56f 54f
12:30 6 8 mph 1014mb 56f 54f
12:24 3 6 mph 1014.1mb 56f 54f
12:18 5 7 mph 1014.1mb 56f 53f
12:12 6 9 mph 1014.1mb 56f 53f
12:06 6 8 mph 1014.1mb 56f 53f
12:00 6 9 mph 1014.1mb 56f 53f
sáb 05/21 11:54 9 11 mph 1014.1mb 56f 53f
11:48 6 8 mph 1014.1mb 56f 54f
11:42 6 7 mph 1014mb 56f 54f
11:36 6 8 mph 1014mb 56f 54f
11:30 6 9 mph 1014mb 56f 55f
11:24 8 10 mph 1014mb 56f 55f
11:18 7 9 mph 1013.9mb 57f 55f
11:12 7 9 mph 1013.9mb 56f 55f
11:06 7 10 mph 1013.9mb 57f 55f
11:00 8 11 mph 1013.9mb 57f 55f
10:54 7 9 mph 1013.9mb 57f 55f
10:48  -  mph 1013.9mb 57f 55f
10:42  -  mph 1013.9mb 57f 55f
10:36  -  mph 1013.9mb 56f 55f
10:30 7 10 mph 1013.9mb 56f 55f
10:24 8 10 mph 1013.9mb 56f 55f
10:18 7 11 mph 1013.8mb 56f 55f
10:12 8 11 mph 1013.8mb 56f 55f
10:06 8 11 mph 1013.7mb 56f 55f
10:00 7 13 mph 1013.7mb 56f 55f
9:54 9 14 mph 1013.7mb 56f 55f
9:48 9 13 mph 1013.6mb 56f 55f
9:42 9 11 mph 1013.6mb 56f 55f
9:36 8 13 mph 1013.6mb 56f 55f
9:30 9 13 mph 1013.5mb 56f 55f
9:24 8 10 mph 1013.4mb 56f 55f
9:18 7 11 mph 1013.4mb 57f 55f
9:12 8 10 mph 1013.3mb 57f 55f
9:06 7 10 mph 1013.3mb 57f 55f
9:00 7 11 mph 1013.3mb 57f 55f
8:54 8 11 mph 1013.3mb 57f 55f
8:48  -  mph 1013.3mb 57f 55f
8:42  -  mph 1013.3mb 57f 55f
8:36  -  mph 1013.2mb 57f 55f
8:30 7 9 mph 1013.2mb 57f 55f
8:24 7 10 mph 1013.2mb 57f 55f
8:18  -  mph 1013.2mb 57f 55f
8:12  -  mph 1013.2mb 57f 55f
8:06  -  mph 1013.2mb 57f 55f
8:00  -  mph 1013.2mb 57f -
7:54  -  mph 1013.2mb 57f -
7:48  -  mph 1013.1mb - 55f
7:42  -  mph 1013.1mb - 55f
7:36  -  mph 1013.1mb - 55f
7:30  -  mph - 58f -
7:24  -  mph - 58f -
7:18  -  mph 1013mb 58f 55f
7:12  -  mph 1013mb 58f 55f
7:06  -  mph 1012.9mb 57f 55f
7:00  -  mph 1013mb 57f 55f
6:54  -  mph 1012.9mb 57f 55f
6:48  -  mph 1012.8mb - -
6:42  -  mph 1012.8mb - -
6:36  -  mph 1012.8mb - -
6:30  -  mph 1012.8mb - -
6:24  -  mph 1012.7mb - -
6:18  -  mph 1012.7mb 57f 55f
6:12  -  mph 1012.7mb 56f 55f
6:06  -  mph 1012.7mb 56f 55f
6:00  -  mph 1012.7mb 56f -
5:54  -  mph 1012.7mb 56f -
5:48  -  mph 1012.7mb 56f -
5:42  -  mph 1012.7mb - -
5:36  -  mph 1012.7mb - -
5:30 8 10 mph 1012.7mb 56f -
5:24 8 10 mph 1012.7mb 56f -
5:18  -  mph 1012.7mb 56f 55f
5:12  -  mph 1012.7mb 56f 55f
5:06  -  mph 1012.7mb 56f 55f
5:00  -  mph - 56f -
4:54  -  mph - 56f -
4:48  -  mph - 56f -
4:42  -  mph 1012.5mb - -
4:36  -  mph 1012.6mb - -
4:30 7 9 mph 1012.6mb 55f 54f
4:24 7 10 mph 1012.6mb 56f 55f
4:18  -  mph 1012.5mb 56f -
4:12  -  mph 1012.6mb 55f -
4:06  -  mph 1012.6mb 55f -
4:00  -  mph - 56f 54f
3:54  -  mph - 56f 54f
3:48  -  mph 1012.6mb 55f -
3:42  -  mph 1012.6mb 56f -
3:36  -  mph 1012.5mb 55f -
3:30  -  mph 1012.5mb 55f -
3:24  -  mph 1012.4mb 55f -
3:18  -  mph 1012.4mb 55f 54f
3:12  -  mph 1012.3mb 55f 54f
3:06  -  mph 1012.3mb 55f 54f
3:00  -  mph 1012.3mb 55f -
2:54  -  mph 1012.3mb 55f -
2:48  -  mph 1012.2mb - -
2:42  -  mph 1012.2mb - -
2:36  -  mph 1012.2mb - -
2:30 10 13 mph 1012.1mb 55f 54f
2:24 13 15 mph 1012mb 55f 54f
2:18 11 14 mph 1012mb 55f 54f
2:12 9 11 mph 1011.9mb 55f 54f
2:06 9 11 mph 1011.9mb 55f 54f
2:00 9 13 mph 1011.9mb 55f 54f
1:54 9 14 mph 1011.8mb 55f 54f
1:48 11 14 mph 1011.9mb 55f 53f
1:42 10 14 mph 1011.8mb 55f 54f
1:36 10 13 mph 1011.8mb 55f 54f
1:30 9 11 mph 1011.7mb 55f 54f
1:24 8 10 mph 1011.7mb 55f 54f
1:18 8 11 mph 1011.7mb 55f 54f
1:12 10 13 mph 1011.6mb 55f 54f
1:06 10 13 mph 1011.6mb 55f 54f
1:00 11 15 mph 1011.5mb 55f 54f
12:54 10 14 mph 1011.5mb 55f 54f
12:48 9 13 mph 1011.4mb 55f 54f
12:42 8 11 mph 1011.4mb 55f 54f
12:36 11 15 mph 1011.4mb 56f 54f
12:30 14 16 mph 1011.5mb 55f 54f
12:24 11 15 mph 1011.4mb 56f 55f
12:18 10 14 mph 1011.4mb 56f 55f
12:12 9 14 mph 1011.4mb 56f 55f
12:06 13 16 mph 1011.3mb 55f 55f
12:00 10 13 mph 1011.3mb 55f 55f
11:54 9 13 mph 1011.2mb 55f 55f
11:48 9 14 mph 1011.2mb 55f 55f
11:42 8 13 mph 1011.1mb 55f 55f
11:36 9 13 mph 1011mb 55f 55f
11:30 9 11 mph 1011mb 55f 55f
11:24 6 9 mph 1011mb 56f 55f
11:18 8 10 mph 1010.9mb 56f 55f
11:12 7 10 mph 1010.8mb 56f 55f
11:06 8 10 mph 1010.8mb 56f 55f
11:00 7 10 mph 1010.8mb 56f 55f
10:54 6 9 mph 1010.7mb 56f 55f
10:48 6 10 mph 1010.7mb 56f 55f
10:42 9 13 mph 1010.6mb 56f 55f
10:36 7 10 mph 1010.5mb 57f 55f
10:30 7 10 mph 1010.5mb 57f 55f
10:24 8 13 mph 1010.4mb 57f 55f
10:18 9 11 mph 1010.4mb 57f 55f
10:12 10 13 mph 1010.4mb 57f 55f
10:06 10 14 mph 1010.4mb 57f 55f
10:00 9 13 mph 1010.3mb 57f 55f
9:54 9 11 mph 1010.3mb 57f 55f
9:48 8 11 mph 1010.2mb 57f 55f
9:42 8 10 mph 1010.2mb 57f 55f
9:36 7 10 mph 1010.2mb 57f 55f
9:30 8 10 mph 1010.2mb 57f 55f
9:24 9 11 mph 1010.2mb 57f 55f
9:18 6 9 mph 1010.2mb 58f 55f
9:12 9 13 mph 1010.1mb 58f 55f
9:06 9 11 mph 1010mb 58f 55f
9:00 8 11 mph 1010mb 58f 55f
8:54 7 13 mph 1010mb 58f 55f
8:48 8 11 mph 1009.9mb 58f 55f
8:42 9 11 mph 1009.9mb 58f 55f
8:36 7 10 mph 1009.8mb 58f 55f
8:30 9 11 mph 1009.8mb 58f 55f
8:24 9 13 mph 1009.8mb 58f 55f
8:18 7 11 mph 1009.8mb 58f 55f
8:12 9 11 mph 1009.8mb 58f 54f
8:06 7 10 mph 1009.7mb 58f 54f
8:00 8 10 mph 1009.6mb 58f 54f
7:54 8 13 mph 1009.7mb 58f 54f
7:48 9 10 mph 1009.6mb 57f 54f
7:42 8 11 mph 1009.5mb 58f 54f
7:36 9 11 mph 1009.5mb 58f 54f
7:30 7 10 mph 1009.5mb 57f 54f
7:24 8 11 mph 1009.4mb 57f 54f
7:18 7 9 mph 1009.3mb 57f 54f
7:12 7 9 mph 1009.3mb 57f 54f
7:06 7 9 mph 1009.3mb 57f 54f
7:00 6 8 mph 1009.2mb 57f 54f
6:54 7 9 mph 1009.2mb 57f 54f
6:48 6 8 mph 1009.2mb 57f 54f
6:42 5 10 mph 1009.1mb 56f 54f
6:36 7 10 mph 1009.1mb 56f 54f
6:30 5 7 mph 1009.1mb 56f 54f
6:24 6 7 mph 1009.1mb 56f 54f
6:18 5 8 mph 1009.1mb 56f 54f
6:12 6 7 mph 1009.1mb 56f 54f
6:06 3 6 mph 1009.1mb 56f 53f
6:00 2 3 mph 1009.2mb 56f 53f
5:54 3 6 mph 1009.2mb 56f 53f
5:48 2 7 mph 1009.1mb 56f 53f
5:42 5
mph
1009.1mb 56f 53f
5:36 3 6 mph 1009.2mb 56f 53f
5:30 5 6 mph 1009.2mb 55f 53f
5:24 5 6 mph 1009.1mb 55f 53f
5:18 3 6 mph 1009.1mb 55f 53f
5:12 3 6 mph 1009.1mb 55f 53f
5:06 2 3 mph 1009.1mb 55f 52f
5:00 2
mph
1009.1mb 55f 52f
4:54 2
mph
1009.1mb 55f 52f
4:48 2
mph
1009.1mb 55f 51f
4:42 1 2 mph 1009.1mb 56f 51f
4:36 2
mph
1009.2mb 55f 51f
4:30  -  1 mph 1009.1mb 55f 51f
4:24 1
mph
1009.2mb 55f 51f
4:18  -  2 mph 1009.3mb 55f 51f
4:12 1 2 mph 1009.3mb 55f 51f
4:06 2
mph
1009.2mb 55f 50f
4:00 2 3 mph 1009.1mb 55f 50f
3:54 2 3 mph 1009.1mb 55f 50f
3:48 3 5 mph 1009.1mb 55f 49f
3:42 5 6 mph 1009.1mb 55f 50f
3:36 5
mph
1009.1mb 55f 51f
3:30 3 6 mph 1009.2mb 55f 51f
3:24 3 6 mph 1009.3mb 55f 52f
3:18 3 5 mph 1009.3mb 55f 52f
3:12 3 5 mph 1009.3mb 55f 51f
3:06 2 3 mph 1009.2mb 55f 51f
3:00 2 3 mph 1009.2mb 55f 51f
2:54 1 2 mph 1009.2mb 55f 50f
2:48 1 2 mph 1009.2mb 55f 50f
2:42 2
mph
1009.1mb 56f 50f
2:36 2 5 mph 1009.2mb 55f 50f
2:30 3 5 mph 1009.2mb 55f 51f
2:24 3
mph
1009.2mb 55f 51f
2:18 2 3 mph 1009.3mb 55f 51f
2:12 3
mph
1009.2mb 55f 51f
2:06 2 3 mph 1009.3mb 55f 51f
2:00 3
mph
1009.3mb 54f 51f
1:54 2 6 mph 1009.3mb 54f 52f
1:48 2 5 mph 1009.3mb 54f 52f
1:42 1 6 mph 1009.4mb 54f 52f
1:36 5 6 mph 1009.4mb 54f 52f
1:30 3 6 mph 1009.3mb 54f 52f
1:24 5 7 mph 1009.3mb 54f 52f
1:18 3 5 mph 1009.3mb 54f 52f
1:12 3 5 mph 1009.4mb 54f 52f
1:06 3 5 mph 1009.4mb 54f 52f
1:00 3 5 mph 1009.3mb 54f 52f
12:54 3
mph
1009.3mb 54f 52f
12:48 2 3 mph 1009.4mb 54f 52f
12:42 2 3 mph 1009.3mb 54f 52f
12:36 2
mph
1009.3mb 54f 52f
12:30  -  1 mph 1009.4mb 54f -
12:24  -  1 mph 1009.3mb 54f -
12:18  -  2 mph 1009.4mb 54f 52f
12:12 1 2 mph 1009.4mb 54f 52f
12:06  -  1 mph 1009.3mb 54f 52f
12:00 1 5 mph 1009.3mb 54f 52f
vie 05/20 11:54 3 5 mph 1009.3mb 54f 52f
11:48 2 3 mph 1009.4mb 54f 52f
11:42 3 5 mph 1009.4mb 55f 52f
11:36 2 3 mph 1009.4mb 55f 52f
11:30 2 5 mph 1009.4mb 55f 51f
11:24 3
mph
1009.4mb 55f 52f
11:18 2 3 mph 1009.5mb 55f 51f
11:12 3
mph
1009.5mb 55f 52f
11:06 2 3 mph 1009.7mb 55f 52f
11:00 2 3 mph 1009.8mb 55f 52f
10:54 2 3 mph 1009.8mb 55f 52f
10:48  -  mph 1009.8mb 55f 52f
10:42  -  mph 1009.8mb 56f 52f
10:36  -  mph 1009.8mb 55f 52f
10:30 3 5 mph 1009.8mb 56f 52f
10:24 3 5 mph 1009.8mb 56f 52f
10:18 3 5 mph 1009.8mb 56f 52f
10:12 3 6 mph 1009.8mb 55f 52f
10:06 5 6 mph 1009.8mb 56f 52f
10:00 5 7 mph 1009.7mb 57f 52f
9:54 5 7 mph 1009.7mb 57f 52f
9:48 5 6 mph 1009.7mb 56f 52f
9:42 6 7 mph 1009.6mb 57f 52f
9:36 6 7 mph 1009.6mb 58f 52f
9:30 5 7 mph 1009.5mb 57f 52f
9:24 6 7 mph 1009.5mb 56f 53f
9:18 6 7 mph 1009.5mb 58f 53f
9:12 6 7 mph 1009.5mb 58f 52f
9:06 6
mph
1009.5mb 57f 53f
9:00 5 6 mph 1009.5mb 58f 53f
8:54 6
mph
1009.5mb 57f 53f
8:48  -  mph 1009.4mb 57f 53f
8:42  -  mph 1009.3mb 58f 54f
8:36  -  mph 1009.3mb 58f 54f
8:30 6 8 mph 1009.3mb 58f 55f
8:24 6 9 mph 1009.3mb 59f 55f
8:18 8 9 mph 1009.2mb 59f 55f
8:12 7 8 mph 1009.2mb 58f 55f
8:06 8 9 mph 1009.2mb 58f 55f
8:00  -  mph - 58f 55f
7:54  -  mph - 58f 56f
7:48 10 11 mph - - -
7:42 10 11 mph - - -
7:36 9 13 mph - - -
7:30  -  mph - 59f -
7:24  -  mph - 59f -
7:18  -  mph 1008.8mb 60f 57f
7:12  -  mph 1008.9mb 61f 57f
7:06  -  mph 1008.9mb 61f 57f
7:00  -  mph 1008.8mb 61f 57f
6:54  -  mph 1008.8mb 61f 57f
6:48 11 15 mph 1008.8mb - -
6:42 11 14 mph 1008.8mb - -
6:36 13 14 mph 1008.8mb - -
6:30 11 15 mph 1008.8mb - -
6:24 11 15 mph 1008.9mb - -
6:18 13 16 mph - - 57f
6:12 11 14 mph - - 57f
6:06 13 15 mph - - 57f
6:00  -  mph 1008.9mb 60f 57f
5:54  -  mph 1008.9mb 60f 57f
5:48 13 16 mph - - -
5:42 13 16 mph - - -
5:36 14 16 mph - - -
5:30  -  mph 1008.7mb 60f -
5:24  -  mph 1008.7mb 60f -
5:18 14 16 mph 1008.7mb 59f 57f
5:12 11 14 mph 1008.7mb 59f 57f
5:06 11 14 mph 1008.7mb 59f 57f
5:00  -  mph 1008.8mb 58f 57f
4:54  -  mph 1008.8mb 58f 56f
4:48 11 14 mph 1008.9mb 58f -
4:36 13 15 mph 1008.9mb 58f -
4:30  -  mph - 58f 56f
4:24  -  mph - 57f 56f
4:18  -  mph 1009mb 57f 56f
4:12  -  mph 1008.9mb 57f 56f